This is the latest recevied weather packets stored in our database for station/object KF0TNT. If no packets are shown the sender has not sent any weather packets the latest 10 day(s).
| Time | Temp. | Humidity | Pressure | Rain* | Wind** | Luminosity | Snow |
|---|---|---|---|---|---|---|---|
| 1777694005 | 3.89° C | 45% | 1024 hPa | 0 mm | - | 0 W/m² | - |
| 1777693702 | 3.89° C | 44% | 1023.7 hPa | 0 mm | - | 0 W/m² | - |
| 1777693401 | 3.89° C | 46% | 1023.8 hPa | 0 mm | - | 0 W/m² | - |
| 1777693099 | 3.33° C | 45% | 1023.8 hPa | 0 mm | - | 0 W/m² | - |
| 1777692796 | 3.33° C | 45% | 1023.7 hPa | 0 mm | - | 0 W/m² | - |
| 1777692493 | 3.33° C | 46% | 1023.7 hPa | 0 mm | - | 0 W/m² | - |
| 1777692189 | 3.33° C | 47% | 1023.6 hPa | 0 mm | - | 0 W/m² | - |
| 1777691886 | 3.33° C | 47% | 1023.2 hPa | 0 mm | - | 0 W/m² | - |
| 1777691584 | 3.89° C | 48% | 1023.3 hPa | 0 mm | - | 0 W/m² | - |
| 1777691283 | 3.89° C | 48% | 1023.5 hPa | 0 mm | - | 0 W/m² | - |
| 1777690980 | 3.89° C | 46% | 1023.3 hPa | 0 mm | - | 0 W/m² | - |
| 1777690678 | 4.44° C | 43% | 1023.3 hPa | 0 mm | - | 0 W/m² | - |
| 1777690375 | 4.44° C | 42% | 1023.5 hPa | 0 mm | - | 0 W/m² | - |
| 1777690073 | 5° C | 41% | 1023.5 hPa | 0 mm | - | 0 W/m² | - |
| 1777689770 | 5° C | 40% | 1023.1 hPa | 0 mm | - | 0 W/m² | - |
| 1777689468 | 5° C | 38% | 1023 hPa | 0 mm | - | 0 W/m² | - |
| 1777689166 | 5.56° C | 39% | 1022.8 hPa | 0 mm | - | 0 W/m² | - |
| 1777688863 | 5.56° C | 38% | 1022.8 hPa | 0 mm | - | 0 W/m² | - |
| 1777688559 | 5.56° C | 37% | 1023 hPa | 0 mm | - | 0 W/m² | - |
| 1777688256 | 6.11° C | 37% | 1022.6 hPa | 0 mm | - | 0 W/m² | - |
| 1777687954 | 6.67° C | 37% | 1022.8 hPa | 0 mm | - | 0 W/m² | - |
| 1777687651 | 6.67° C | 35% | 1022.7 hPa | 0 mm | - | 0 W/m² | - |
| 1777687348 | 7.22° C | 36% | 1022.6 hPa | 0 mm | - | 1 W/m² | - |
| 1777687046 | 7.78° C | 36% | 1022.6 hPa | 0 mm | - | 2 W/m² | - |
| 1777686742 | 7.78° C | 35% | 1022.6 hPa | 0 mm | - | 4 W/m² | - |
* Rain latest hour (hover to see other rain measurements)
** Current wind speed in m/s (hover to see current wind gust speed)